This demonstration page uses our WeatherBlox Daily Observations layout. Learn more.

Left ArrowRight Arrow

Hourly Observations for July 25, 2018

Temp ( °F °C ) Dew Point ( °F °C ) Humidity (%) Winds ( mph kmh ) Pressure ( in mb ) Visibility ( mi km ) Precip ( " mm )
12:53 am 00:53 Mostly Cloudy 87 30.6 59 15 39 39 W 5 7 29.94 1014 10 16 0.00 0.00
1:53 am 01:53 Cloudy 84 28.9 60 15.6 44 44 W 5 7 29.95 1014 10 16 0.00 0.00
2:53 am 02:53 Clear 82 27.8 59 15 46 46 WNW 5 7 29.96 1015 10 16 0.00 0.00
3:53 am 03:53 Mostly Clear 81 27.2 59 15 47 47 NW 6 9 29.96 1015 10 16 0.00 0.00
4:53 am 04:53 Clear 78 25.6 61 16.1 56 56 Calm 29.96 1015 10 16 0.00 0.00
5:53 am 05:53 Clear 77 25 63 17.2 62 62 Calm 29.98 1015 10 16 0.00 0.00
6:53 am 06:53 Mostly Cloudy 76 24.4 61 16.1 60 60 Calm 29.99 1016 10 16 0.00 0.00
7:53 am 07:53 Mostly Cloudy 80 26.7 64 17.8 58 58 NNW 3 6 30.00 1016 10 16 0.00 0.00
8:53 am 08:53 Mostly Sunny 85 29.4 62 16.7 46 46 NNE 5 7 30.01 1016 10 16 0.00 0.00
9:53 am 09:53 Sunny 91 32.8 59 15 34 34 NE 6 9 30.00 1016 10 16 0.00 0.00
10:53 am 10:53 Sunny 95 35 58 14.4 29 29 NE 7 11 29.99 1016 10 16 0.00 0.00
11:53 am 11:53 Sunny 101 38.3 55 12.8 22 22 N 7 11 29.97 1015 10 16 0.00 0.00
12:53 pm 12:53 Sunny 104 40 52 11.1 18 18 VRB 5 7 29.95 1014 8 13 0.00 0.00
1:53 pm 13:53 Sunny 106 41.1 44 6.7 12 12 Calm 29.93 1014 10 16 0.00 0.00
2:53 pm 14:53 Sunny 107 41.7 44 6.7 12 12 SSW 5 7 29.91 1013 10 16 0.00 0.00
3:53 pm 15:53 Sunny 109 42.8 43 6.1 11 11 VRB 5 7 29.90 1012 9 14 0.00 0.00
4:53 pm 16:53 Sunny 110 43.3 41 5 10 10 ESE 5 7 29.88 1012 9 14 0.00 0.00
5:53 pm 17:53 Sunny 110 43.3 40 4.4 9 9 VRB 6 9 29.87 1012 9 14 0.00 0.00
6:53 pm 18:53 Sunny 109 42.8 40 4.4 9 9 SSE 7 11 29.86 1011 10 16 0.00 0.00
7:43 pm 19:43 Mostly Sunny 105 40.6 47 8.3 14 14 S 6 9 29.85 1011 10 16 0.00 0.00
7:53 pm 19:53 Sunny 104 40 46 7.8 14 14 S 6 9 29.86 1011 10 16 0.00 0.00
8:53 pm 20:53 Clear 96 35.6 49 9.4 20 20 NE 3 6 29.88 1012 10 16 0.00 0.00
9:53 pm 21:53 Clear 94 34.4 52 11.1 24 24 NNE 7 11 29.90 1012 10 16 0.00 0.00
10:53 pm 22:53 Clear 89 31.7 51 10.6 27 27 ENE 5 7 29.91 1013 10 16 0.00 0.00
11:53 pm 23:53 Partly Cloudy 87 30.6 51 10.6 29 29 NNE 5 7 29.91 1013 10 16 0.00 0.00

Powered by AerisWeather